Location: Bauerbach
(50.4985°N, 10.3912°E)
Time: 02:51:15
(UTC+00:00)

ISS - Visible Passes

Search period start: 06 March 2026 00:00
Search period end: 16 March 2026 00:00
Orbit: 416 x 427 km, 51.6° (Epoch: 5 March)

Date Brightness Start Highest point End Pass type
(mag) Time Alt. Az. Time Alt. Az. Time Alt. Az.
11 Mar -1.8 18:44:55 10° S 18:46:27 16° SSE 18:46:27 16° SSE visible
12 Mar -1.5 17:59:03 10° SSE 18:00:26 12° SE 18:01:50 10° ESE visible
12 Mar -2.0 19:33:22 10° SW 19:35:00 25° SW 19:35:00 25° SW visible
13 Mar -3.0 18:46:32 10° SW 18:49:41 36° SSE 18:50:20 32° ESE visible
13 Mar -0.7 20:22:58 10° W 20:23:21 13° W 20:23:21 13° W visible
14 Mar -2.5 17:59:50 10° SSW 18:02:43 26° SE 18:05:31 10° E visible
14 Mar -3.1 19:35:51 10° WSW 19:38:31 52° WSW 19:38:31 52° WSW visible
15 Mar -3.8 18:48:47 10° WSW 18:52:10 68° SSE 18:53:34 32° E visible
15 Mar -0.9 20:25:40 10° W 20:26:35 17° W 20:26:35 17° W visible
